This demonstration page uses our WeatherBlox Daily Observations layout. Learn more.

41.55636, -103.73856

Hourly Observations for May 2, 2018

Temp ( °F °C ) Dew Point ( °F °C ) Humidity (%) Winds ( mph kmh ) Pressure ( in mb ) Visibility ( mi km ) Precip ( " mm )
12:58 am 00:58 Mostly Clear 41 5.1 39 4.1 93 93 S 6 9 29.88 1012 10 16.0934 N/A
1:58 am 01:58 Clear 40 4.3 38 3.6 95 95 SW 9 15 29.9 1013 10 16.0934 N/A
2:58 am 02:58 Mostly Clear 41 4.9 39 3.7 92 92 WSW 10 17 29.93 1014 10 16.0934 N/A
3:58 am 03:58 Clear 40 4.5 38 3.5 93 93 WSW 6 9 29.96 1015 10 16.0934 N/A
4:58 am 04:58 Clear 38 3.6 37 2.7 94 94 SSW 8 13 29.97 1015 10 16.0934 N/A
5:58 am 05:58 Sunny 38 3.3 37 2.6 95 95 SW 6 9 29.97 1015 10 16.0934 0 0
6:58 am 06:58 Partly Cloudy 40 4.4 39 3.7 95 95 WSW 6 9 29.97 1015 10 16.0934 N/A
7:58 am 07:58 Mostly Sunny 43 5.9 41 4.8 93 93 S 5 7 29.98 1015 10 16.0934 N/A
8:58 am 08:58 Cloudy 44 6.5 41 4.8 89 89 S 6 9 30.01 1016 10 16.0934 N/A
9:58 am 09:58 Cloudy with Light Showers 45 7.4 43 6.1 92 92 WSW 6 9 30.01 1016 7 11.26538 0.01 0.254
10:58 am 10:58 Cloudy with Light Rain 46 7.7 44 6.5 92 92 SSW 5 7 30.01 1016 8 12.87472 0.06 1.524
11:58 am 11:58 Cloudy with Light Showers 47 8.4 44 6.7 89 89 NNE 5 7 29.99 1016 10 16.0934 0.02 0.508
12:58 pm 12:58 Cloudy with Light Rain 47 8.5 42 5.5 82 82 ENE 10 17 29.97 1015 10 16.0934 0.01 0.254
1:58 pm 13:58 Cloudy 47 8.1 41 5.2 82 82 E 9 15 29.98 1015 10 16.0934 N/A
2:58 pm 14:58 Partly Cloudy 50 9.8 42 5.4 74 74 E 12 19 29.92 1013 10 16.0934 0 0
3:58 pm 15:58 Mostly Cloudy 51 10.4 42 5.3 71 71 ESE 10 17 29.91 1013 10 16.0934 N/A
4:58 pm 16:58 Cloudy 51 10.5 41 5.1 69 69 ENE 10 17 29.9 1013 10 16.0934 N/A
5:58 pm 17:58 Cloudy 49 9.7 41 5.1 73 73 ENE 9 15 29.92 1013 10 16.0934 0 0
6:58 pm 18:58 Mostly Cloudy 49 9.3 42 5.4 77 77 ENE 9 15 29.91 1013 10 16.0934 N/A
7:58 pm 19:58 Cloudy 47 8.6 42 5.7 82 82 NE 9 15 29.91 1013 10 16.0934 N/A
8:58 pm 20:58 Cloudy with Rain 46 7.6 44 6.4 92 92 NNE 13 20 29.93 1014 8 12.87472 0.04 1.016
9:58 pm 21:58 Cloudy with Light Rain 45 7.3 43 6.3 93 93 NE 17 28 29.95 1014 10 16.0934 0.02 0.508
10:58 pm 22:58 Cloudy with Light Showers 44 6.8 43 6 95 95 NNE 13 20 29.96 1015 10 16.0934 N/A
11:58 pm 23:58 Cloudy with Rain 44 6.5 42 5.7 95 95 NNE 12 19 29.96 1015 10 16.0934 0.06 1.524

Powered by AerisWeather